This demonstration page uses our WeatherBlox Daily Observations layout. Learn more.

Left ArrowRight Arrow

38.20091, -84.87328

Hourly Observations for July 17, 2020

Temp ( °F °C ) Dew Point ( °F °C ) Humidity (%) Winds ( mph kmh ) Pressure ( in mb ) Visibility ( mi km ) Precip ( " mm )
12:53 am 00:53 Mostly Cloudy 75 23.9 70 21.1 84 84 Calm 30.10 1019 10 16 0.00 0.00
1:53 am 01:53 Clear 73 22.8 70 21.1 90 90 NNW 3 6 30.11 1020 10 16 0.00 0.00
2:40 am 02:40 Mostly Cloudy 72 22.2 70 21.1 94 94 Calm 30.11 1020 10 16 0.00 0.00
2:53 am 02:53 Cloudy 73 22.8 70 21.1 90 90 Calm 30.11 1020 10 16 0.00 0.00
3:16 am 03:16 Cloudy 73 22.8 70 21.1 90 90 NNW 5 7 30.11 1020 10 16 0.00 0.00
3:53 am 03:53 Cloudy 73 22.8 69 20.6 87 87 Calm 30.11 1020 10 16 0.00 0.00
4:53 am 04:53 Partly Cloudy 72 22.2 69 20.6 91 91 Calm 30.11 1020 10 16 0.00 0.00
5:15 am 05:15 Mostly Cloudy 73 22.8 69 20.6 87 87 Calm 30.11 1020 10 16 0.00 0.00
5:53 am 05:53 Mostly Cloudy 72 22.2 69 20.6 91 91 NW 3 6 30.12 1020 10 16 0.00 0.00
6:34 am 06:34 Partly Cloudy 72 22.2 69 20.6 91 91 Calm 30.14 1021 10 16 0.00 0.00
6:53 am 06:53 Mostly Sunny 71 21.7 69 20.6 94 94 Calm 30.15 1021 9 14 0.00 0.00
7:53 am 07:53 Mostly Cloudy 74 23.3 69 20.6 85 85 Calm 30.17 1022 10 16 0.00 0.00
8:53 am 08:53 Cloudy 76 24.4 68 20 77 77 NE 3 6 30.18 1022 10 16 0.00 0.00
9:53 am 09:53 Mostly Cloudy 79 26.1 69 20.6 72 72 E 3 6 30.18 1022 10 16 0.00 0.00
10:03 am 10:03 Mostly Cloudy 79 26.1 69 20.6 72 72 ESE 3 6 30.17 1022 10 16 0.00 0.00
10:44 am 10:44 Partly Cloudy 81 27.2 71 21.7 72 72 VRB 5 7 30.17 1022 10 16 0.00 0.00
10:53 am 10:53 Mostly Cloudy 81 27.2 70 21.1 69 69 VRB 6 9 30.18 1022 10 16 0.00 0.00
11:36 am 11:36 Partly Cloudy 82 27.8 71 21.7 69 69 VRB 5 7 30.16 1021 10 16 0.00 0.00
11:43 am 11:43 Mostly Cloudy 83 28.3 70 21.1 65 65 Calm 30.16 1021 10 16 0.00 0.00
11:50 am 11:50 Partly Cloudy 82 28 72 22 70 70 S 5 7 30.16 1021 10 16 0.00 0.00
11:53 am 11:53 Partly Cloudy 83 28.3 72 22.2 70 70 Calm 30.17 1022 10 16 0.00 0.00
12:36 pm 12:36 Mostly Cloudy 86 30 72 22.2 63 63 Calm 30.14 1021 10 16 0.00 0.00
12:44 pm 12:44 Mostly Cloudy with Nearby Thunderstorms 85 29.4 72 22.2 65 65 NW 5 7 30.16 1021 10 16 0.00 0.00
12:53 pm 12:53 Mostly Cloudy with Nearby Thunderstorms 84 28.9 71 21.7 65 65 WSW 3 6 30.17 1022 10 16 0.00 0.00
1:05 pm 13:05 Mostly Sunny 83 28.3 71 21.7 67 67 SSW 3 6 30.15 1021 10 16 0.00 0.00
1:50 pm 13:50 Mostly Cloudy 79 26 70 21 74 74 S 10 17 30.16 1021 10 16 0.00 0.00
1:53 pm 13:53 Mostly Cloudy 78 25.6 69 20.6 74 74 S 12 19 30.16 1022 10 16 0.00 0.00
2:07 pm 14:07 Partly Cloudy 75 23.9 66 18.9 74 74 SSE 6 9 30.15 1021 10 16 0.00 0.00
2:14 pm 14:14 Partly Cloudy with Nearby Thunderstorms 75 23.9 66 18.9 74 74 S 6 9 30.15 1021 10 16 0.00 0.00
2:29 pm 14:29 Partly Cloudy 75 23.9 67 19.4 76 76 S 6 9 30.15 1021 10 16 0.00 0.00
2:53 pm 14:53 Mostly Cloudy with Light Rain 73 22.8 67 19.4 81 81 SE 7 11 30.15 1021 10 16 0.00 0.00
3:53 pm 15:53 Sunny 77 25 70 21.1 79 79 VRB 3 6 30.14 1021 10 16 0.01 0.25
4:53 pm 16:53 Sunny 81 27.2 71 21.7 72 72 SW 5 7 30.13 1020 10 16 0.00 0.00
5:53 pm 17:53 Sunny 83 28.3 72 22.2 70 70 VRB 3 6 30.10 1019 10 16 0.00 0.00
6:53 pm 18:53 Sunny 84 28.9 72 22.2 67 67 WSW 3 6 30.10 1019 10 16 0.00 0.00
7:53 pm 19:53 Sunny 83 28.3 72 22.2 70 70 SSW 6 9 30.09 1019 10 16 0.00 0.00
8:53 pm 20:53 Sunny 79 26.1 71 21.7 77 77 SW 5 7 30.10 1019 10 16 0.00 0.00
9:53 pm 21:53 Clear 77 25 71 21.7 82 82 Calm 30.09 1019 10 16 0.00 0.00
10:53 pm 22:53 Clear 74 23.3 71 21.7 91 91 Calm 30.11 1020 10 16 0.00 0.00
11:53 pm 23:53 Clear 74 23.3 71 21.7 91 91 S 3 6 30.11 1020 10 16 0.00 0.00

Powered by AerisWeather